DateTimeUTC,F1_A11,F1_S11,BsB_S11,BsG_S11,BsR_S11,BbsB_S11,BbsG_S11,BbsR_S11,BaB_A11,BaG_A11,BaR_A11,Tu_S11,T_S11,Uu_S11,U_S11,P_S11,T1_A11
2021-06-03T08:00:00Z,00000200,21000000,,,,,,,0000.21,0000.09,0000.12,16.1,23.4,,00.0,0665.2,30.9
2021-06-03T08:01:00Z,00000200,21000000,,,,,,,-000.32,0000.50,-000.01,16.1,23.4,,00.0,0665.2,30.9
2021-06-03T08:02:00Z,00000200,21000000,,,,,,,0000.23,0000.01,-000.02,16.1,23.4,,00.0,0665.2,30.9
2021-06-03T08:03:00Z,00000200,61000000,,,,,,,0000.40,0000.15,0000.05,16.1,23.4,,00.0,0665.2,30.9
2021-06-03T08:04:00Z,00000200,41000000,0000.40,0000.35,0000.02,0000.30,0000.08,0000.07,0000.27,-000.07,0000.09,16.2,23.1,00.1,00.1,0666.1,30.9
2021-06-03T08:05:00Z,00000200,01000000,0000.33,-000.27,0000.06,0000.22,-000.06,0000.26,-000.03,0000.73,0000.23,16.2,23.1,00.1,00.1,0666.2,30.9
2021-06-03T08:06:00Z,00000200,01000000,0000.57,0000.13,0000.27,0000.23,0000.38,0000.07,-000.12,-000.40,0000.15,16.2,23.0,00.3,00.2,0666.2,30.8
2021-06-03T08:07:00Z,00000200,01000000,0000.54,0000.27,0000.04,-000.28,0000.05,0000.25,0000.56,0000.14,-000.05,16.2,23.0,00.2,00.1,0666.2,30.9
2021-06-03T08:08:00Z,00000200,01000000,0000.59,0000.16,0000.14,0000.26,0000.02,0000.39,-000.29,0000.12,0000.10,16.2,23.0,00.2,00.1,0666.2,30.9
2021-06-03T08:09:00Z,00000200,01000000,0000.61,0000.31,0000.28,-000.23,0000.01,0000.09,0000.15,-000.19,-000.06,16.1,23.0,00.4,00.2,0666.2,30.9
2021-06-03T08:10:00Z,00000200,01000000,0000.70,0000.17,0000.01,-000.09,0000.14,0000.31,0000.44,0000.59,0000.45,16.1,23.0,00.3,00.2,0666.2,30.8
2021-06-03T08:11:00Z,00000200,01000000,0000.68,-000.32,0000.31,-000.61,0000.24,0000.07,0000.27,-000.01,0000.22,16.1,23.0,00.4,00.3,0666.2,30.8
2021-06-03T08:12:00Z,00000200,01000000,0000.42,0000.46,0000.09,-000.05,0000.09,-000.15,-000.25,0000.28,-000.21,16.1,23.0,00.5,00.3,0666.2,30.8
2021-06-03T08:13:00Z,00000200,01000000,-000.20,-000.15,-000.24,0000.15,0000.06,0000.13,0000.48,-000.03,0000.12,16.1,22.9,00.5,00.3,0666.2,30.8
2021-06-03T08:14:00Z,00000200,01000000,0001.13,0000.02,0000.09,0000.04,-000.08,0000.21,-000.15,0000.03,0000.11,16.1,22.9,00.5,00.3,0666.2,30.8
2021-06-03T08:15:00Z,00000200,01000000,0000.35,0000.24,-000.24,-000.26,0000.11,0000.17,0000.30,0000.26,0000.21,16.1,22.9,00.6,00.4,0666.2,30.8
2021-06-03T08:16:00Z,00000200,01000000,0001.13,0000.16,0000.01,-000.14,-000.03,0000.12,0000.04,0000.07,-000.07,16.1,22.9,00.7,00.5,0666.2,30.8
2021-06-03T08:17:00Z,00000200,01000000,0000.25,0000.18,0000.10,-000.35,0000.00,0000.15,0000.12,0000.04,-000.09,16.1,22.9,00.7,00.5,0666.2,30.8
2021-06-03T08:18:00Z,00000200,01000000,0000.72,0000.15,0000.01,-000.21,0000.01,-000.02,0000.27,0000.09,0000.38,16.1,22.9,00.7,00.4,0666.2,30.8
2021-06-03T08:19:00Z,00000200,01000000,0000.11,0000.25,0000.09,-000.14,0000.02,0000.08,0000.60,0000.47,0000.21,16.0,22.9,00.8,00.5,0666.2,30.8
2021-06-03T08:20:00Z,00000200,01000000,0000.33,0000.10,0000.11,0000.33,0000.05,0000.18,-000.15,0000.14,0000.39,16.0,22.9,00.8,00.5,0666.2,30.8
2021-06-03T08:21:00Z,00000200,01000000,0000.83,-000.09,0000.09,-000.21,0000.04,0000.45,0000.46,0000.51,0000.15,16.0,22.8,00.9,00.6,0666.2,30.8
2021-06-03T08:22:00Z,00000200,01000000,0000.85,0000.11,0000.03,0000.34,0000.18,0000.28,0000.34,0000.52,0000.48,16.1,22.8,00.9,00.6,0666.2,30.8
2021-06-03T08:23:00Z,00000200,01000000,0000.04,0000.13,0000.44,0000.42,0000.24,0000.45,0000.49,0000.37,0000.62,16.2,22.9,01.0,00.6,0666.2,30.8
2021-06-03T08:24:00Z,00000200,01000000,0001.57,0000.10,0000.18,-000.17,0000.22,0000.09,-000.20,0000.12,-000.63,16.3,22.9,01.1,00.7,0666.2,30.9
2021-06-03T08:25:00Z,00000200,01000000,0001.07,0000.23,0000.21,-000.02,0000.07,0000.33,0000.17,-000.22,0000.40,16.3,23.0,00.9,00.6,0666.3,30.9
2021-06-03T08:26:00Z,00000200,01000000,0000.86,0000.41,-000.13,-000.02,0000.02,0000.54,-000.28,-000.28,-000.28,16.4,23.0,00.9,00.6,0666.3,30.9
2021-06-03T08:27:00Z,00000200,01000000,0000.77,0000.19,0000.29,-000.22,0000.11,0000.37,0000.12,-000.03,-000.04,16.4,23.0,00.8,00.5,0666.3,30.9
2021-06-03T08:28:00Z,00000200,01000000,0000.74,0000.29,0000.11,0000.07,0000.18,0000.20,0000.29,0000.57,0000.08,16.4,23.0,01.0,00.6,0666.3,30.9
2021-06-03T08:29:00Z,00000200,01000000,0001.09,0000.11,0000.02,-000.01,-000.11,-000.03,0000.31,-000.07,0000.29,16.4,23.0,00.9,00.6,0666.3,30.9
2021-06-03T08:30:00Z,00000200,01000000,0000.69,0000.39,0000.11,-000.18,0000.04,0000.08,-000.38,-000.06,-000.01,16.4,23.0,01.0,00.7,0666.3,30.9
2021-06-03T08:31:00Z,00000200,01000000,0000.40,0000.54,-000.01,-000.11,0000.26,0000.29,0000.44,0000.22,-000.12,16.4,23.0,01.0,00.6,0666.3,30.9
2021-06-03T08:32:00Z,00000200,01000000,0000.52,0000.21,0000.27,0000.41,-000.03,0000.03,0000.16,0000.41,0000.19,16.3,23.0,01.2,00.8,0666.3,30.9
2021-06-03T08:33:00Z,00000200,01000000,0000.66,0000.05,0000.26,0000.21,0000.03,0000.05,0000.47,0000.18,0000.40,16.3,23.0,01.3,00.8,0666.3,30.9
2021-06-03T08:34:00Z,00000200,01000000,0000.64,0000.30,0000.24,0000.06,0000.04,0000.08,0000.34,0000.38,0000.37,16.3,23.0,01.4,00.9,0666.3,30.8
2021-06-03T08:35:00Z,00000200,01000000,0000.93,0000.26,0000.24,0000.09,0000.03,0000.42,0000.50,0000.50,0000.19,16.3,23.0,01.4,01.0,0666.3,30.8
2021-06-03T08:36:00Z,00000200,01000000,0001.34,0000.45,0000.24,-000.41,0000.11,0000.17,0000.47,0000.49,0000.47,16.3,22.9,01.5,01.0,0666.3,30.8
2021-06-03T08:37:00Z,00000200,01000000,0000.90,0000.28,0000.33,-000.05,0000.16,0000.26,0000.29,0000.34,0000.16,16.3,22.9,01.6,01.1,0666.3,30.8
2021-06-03T08:38:00Z,00000200,01000000,0000.55,0000.57,0000.29,-000.20,-000.03,0000.08,0000.22,0000.73,0000.45,16.4,23.0,01.6,01.1,0666.3,30.9
2021-06-03T08:39:00Z,00000200,01000000,0001.00,0000.49,-000.12,0000.16,0000.21,-000.15,0000.50,-000.28,0000.11,16.5,23.0,01.7,01.1,0666.3,30.9
2021-06-03T08:40:00Z,00000200,01000000,0000.95,0000.36,0000.39,0000.18,-000.09,-000.02,0000.03,-000.04,-000.06,16.5,23.1,01.7,01.1,0666.3,30.9
2021-06-03T08:41:00Z,00000200,01000000,0001.09,0000.33,0000.34,0000.17,0000.04,0000.16,-000.41,0000.21,-000.38,16.6,23.1,01.6,01.1,0666.3,30.9
2021-06-03T08:42:00Z,00000200,01000000,0001.05,0000.43,0000.46,-000.08,0000.14,0000.03,0000.51,0000.03,0000.43,16.5,23.1,01.8,01.2,0666.4,30.9
2021-06-03T08:43:00Z,00000200,01000000,0001.26,0000.20,0000.14,-000.33,0000.04,0000.38,0000.35,0000.10,0000.26,16.5,23.1,01.7,01.1,0666.4,30.9
2021-06-03T08:44:00Z,00000200,00000000,0000.95,0000.47,0000.40,-000.19,0000.19,0000.16,0000.14,0000.25,0000.01,16.5,23.1,01.8,01.2,0666.4,30.9
2021-06-03T08:45:00Z,00000200,01000000,0001.04,0000.46,0000.06,0000.25,0000.20,0000.00,0000.21,0000.24,0000.04,16.5,23.1,02.0,01.3,0666.4,30.9
2021-06-03T08:46:00Z,00000200,01000000,0000.42,0000.61,0000.28,0000.30,0000.33,0000.37,0000.01,0000.10,0000.27,16.5,23.0,01.8,01.2,0666.4,30.9
2021-06-03T08:47:00Z,00000200,01000000,0001.58,0000.44,0000.07,0000.03,0000.27,0000.27,-000.20,-000.07,-000.50,16.5,23.0,02.0,01.3,0666.4,30.9
2021-06-03T08:48:00Z,00000200,01000000,0001.19,0000.42,0000.57,0000.09,0000.13,0000.32,-000.07,-000.25,0000.36,16.5,23.0,01.9,01.2,0666.4,30.9
2021-06-03T08:49:00Z,00000200,01000000,0000.86,0000.61,0000.50,-000.15,0000.22,0000.17,0000.06,-000.00,0000.15,16.4,23.0,01.8,01.2,0666.4,30.9
2021-06-03T08:50:00Z,00000200,01000000,0000.84,0000.26,-000.15,-000.28,-000.09,0000.09,0000.22,0000.51,0000.20,16.4,23.0,01.7,01.1,0666.4,30.9
2021-06-03T08:51:00Z,00000200,01000000,0000.45,0000.48,0000.27,-000.08,0000.06,0000.13,0000.24,-000.11,-000.10,16.4,23.0,01.7,01.1,0666.4,30.9
2021-06-03T08:52:00Z,00000200,01000000,0001.47,0000.40,0000.26,0000.35,0000.16,0000.28,0000.03,-000.04,0000.10,16.4,23.0,01.8,01.2,0666.4,30.9
2021-06-03T08:53:00Z,00000200,01000000,0001.50,0000.65,0000.27,-000.16,0000.18,0000.19,0000.29,0000.49,0000.13,16.4,23.0,01.8,01.2,0666.4,30.8
2021-06-03T08:54:00Z,00000200,01000000,0001.49,0000.59,0000.22,0000.67,0000.12,0000.25,0000.29,0000.23,0000.41,16.4,23.0,01.9,01.2,0666.4,30.8
2021-06-03T08:55:00Z,00000200,01000000,0000.46,0000.44,0000.29,0000.22,0000.20,0000.10,0000.47,0000.32,-000.16,16.4,23.0,01.9,01.2,0666.4,30.8
2021-06-03T08:56:00Z,00000200,00000000,0001.19,0000.35,0000.64,0000.06,0000.10,0000.22,0000.43,0000.27,0000.39,16.3,23.0,02.0,01.3,0666.4,30.8
2021-06-03T08:57:00Z,00000200,40000000,,,,,,,-001.17,-001.08,-000.82,16.4,23.0,02.6,01.7,0666.5,30.8
2021-06-03T08:58:00Z,00000200,61000000,,,,,,,-000.07,0000.12,0000.26,16.0,23.1,01.6,01.0,0665.5,30.8
2021-06-03T08:59:00Z,00000200,20000000,,,,,,,0000.31,0000.39,-000.10,16.0,23.2,01.6,01.0,0665.5,30.8
